Погода в Лычеве

Россия / Ивановская область     56°30′55″N   40°02′24″E
темп.,
°C
ветер,
м/с
пор.,
м/с
влажн.,
%
обл.,
%
осадки,
мм/ч
давл.,
гПа
погр.,
м
26 сентября, вс
вс2600:00+8ю4996100 1.4 1003452
03:00+8ююв3797100 3.1 1002436
06:00+8ю2299100 2.4 100183
09:00+8св0097100 4.9 100229
12:00+9ссв3594100 3.0 1003353
15:00+9ссв5896100 4.6 1006444
18:00+8ссв4996100 0.7 1009471
21:00+8ссв51095100 1.0 1012510
27 сентября, пн
пн2700:00+8ссв51094100 0.4 1014454
03:00+8с51192100 0.5 1017448
06:00+8с51195100 0.1 1018553
09:00+8с5109486 0.3 1019511
12:00+9ссв61085100 0.1 1020828
15:00+8ссв61088100 0.3 1022809
18:00+8ссв61091100 0.1 1023780
21:00+7св61089100 0.3 10241101
28 сентября, вт
вт2800:00+6всв5987100 0.2 1026779
03:00+5св5989100 0.3 1027718
06:00+5св5989100 0.1 1029611
09:00+6всв688042 0.1 1030714
12:00+9всв56615 0.0 10311005
15:00+10св455078 0.0 10311173
18:00+6св34665 0.0 103263
21:00+4ссв23745 0.0 103328
29 сентября, ср
ср2900:00+3ссв22795 0.0 103417
03:00+2с22833 0.0 103421
06:00+1с23865 0.0 103535
09:00+5ссв346815 0.0 1036268
12:00+9ссв34555 0.0 1035702
15:00+11ссв33505 0.0 1034938
18:00+7с22675 0.0 103413
21:00+5ссз227674 0.0 103510
30 сентября, чт
чт3000:00+7сз2372100 0.0 103579
03:00+6сз3580100 0.0 1035131
06:00+6сз368180 0.0 1035178
09:00+8сз3779100 0.0 1035284
12:00+10ссз457433 0.0 1035493
15:00+12сз456858 0.0 1034848
18:00+9зсз358185 0.0 1034104
21:00+9сз4779100 0.0 1034218